Time,TemperatureF,DewpointF,PressureIn,WindDirection,WindDirectionDegrees,WindSpeedMPH,WindSpeedGustMPH,Humidity,HourlyPrecipIn,Conditions,Clouds,dailyrainin,SoftwareType,DateUTC
2013-08-26 00:01:00,67.6,62.0,28.23,South,180,0.0,0.0,82,0.00,,---,0.00,VWS V14.01,2013-08-26 04:01:00,
2013-08-26 00:06:00,67.6,62.0,28.23,South,180,0.0,0.0,82,0.00,,---,0.00,VWS V14.01,2013-08-26 04:06:00,
2013-08-26 00:11:00,67.6,62.0,28.23,South,180,0.0,0.0,82,0.00,,---,0.00,VWS V14.01,2013-08-26 04:11:00,
2013-08-26 00:16:00,67.6,61.6,28.23,WSW,248,0.0,0.0,81,0.00,,---,0.00,VWS V14.01,2013-08-26 04:16:00,
2013-08-26 00:21:00,67.5,61.8,28.23,WSW,248,0.0,0.0,82,0.00,,---,0.00,VWS V14.01,2013-08-26 04:21:00,
2013-08-26 00:27:00,67.3,61.6,28.23,WSW,248,0.0,0.0,82,0.00,,---,0.00,VWS V14.01,2013-08-26 04:27:00,
2013-08-26 00:32:00,67.1,61.4,28.23,WSW,248,0.0,0.0,82,0.00,,---,0.00,VWS V14.01,2013-08-26 04:32:00,
2013-08-26 00:37:00,66.9,61.2,28.23,WSW,248,0.0,0.0,82,0.00,,---,0.00,VWS V14.01,2013-08-26 04:37:00,
2013-08-26 00:42:00,66.7,61.1,28.23,WSW,248,0.0,0.0,82,0.00,,---,0.00,VWS V14.01,2013-08-26 04:42:00,
2013-08-26 00:47:00,66.6,61.2,28.23,WSW,248,0.0,0.0,83,0.00,,---,0.00,VWS V14.01,2013-08-26 04:47:00,
2013-08-26 00:52:00,66.4,61.1,28.20,WSW,248,0.0,0.0,83,0.00,,---,0.00,VWS V14.01,2013-08-26 04:52:00,
2013-08-26 00:57:00,66.2,60.9,28.20,WSW,248,0.0,0.0,83,0.00,,---,0.00,VWS V14.01,2013-08-26 04:57:00,
2013-08-26 01:02:00,66.2,60.9,28.20,WSW,248,0.0,0.0,83,0.00,,---,0.00,VWS V14.01,2013-08-26 05:02:00,
2013-08-26 01:07:00,65.8,60.5,28.20,WSW,248,0.0,0.0,83,0.00,,---,0.00,VWS V14.01,2013-08-26 05:07:00,
2013-08-26 01:12:00,65.7,60.4,28.20,NW,315,0.0,0.0,83,0.00,,---,0.00,VWS V14.01,2013-08-26 05:12:00,
2013-08-26 01:17:00,65.5,60.5,28.20,NW,315,0.0,0.0,84,0.00,,---,0.00,VWS V14.01,2013-08-26 05:17:00,
2013-08-26 01:22:00,65.3,60.3,28.23,NW,315,0.0,0.0,84,0.00,,---,0.00,VWS V14.01,2013-08-26 05:22:00,
2013-08-26 01:27:00,65.3,60.3,28.23,NW,315,0.0,0.0,84,0.00,,---,0.00,VWS V14.01,2013-08-26 05:27:00,
2013-08-26 01:32:00,65.1,60.5,28.23,NW,315,0.0,0.0,85,0.00,,---,0.00,VWS V14.01,2013-08-26 05:32:00,
2013-08-26 01:37:00,65.1,60.5,28.23,NW,315,0.0,0.0,85,0.00,,---,0.00,VWS V14.01,2013-08-26 05:37:00,
2013-08-26 01:42:00,64.9,60.3,28.23,NW,315,0.0,0.0,85,0.00,,---,0.00,VWS V14.01,2013-08-26 05:42:00,
2013-08-26 01:47:00,64.8,60.2,28.23,NW,315,0.0,0.0,85,0.00,,---,0.00,VWS V14.01,2013-08-26 05:47:00,
2013-08-26 01:52:00,64.6,60.0,28.23,NW,315,0.0,0.0,85,0.00,,---,0.00,VWS V14.01,2013-08-26 05:52:00,
2013-08-26 01:57:00,64.4,59.8,28.23,NW,315,0.0,0.0,85,0.00,,---,0.00,VWS V14.01,2013-08-26 05:57:00,
2013-08-26 02:02:00,64.2,59.6,28.23,NW,315,0.0,0.0,85,0.00,,---,0.00,VWS V14.01,2013-08-26 06:02:00,
2013-08-26 02:07:00,63.9,59.3,28.20,NW,315,0.0,0.0,85,0.00,,---,0.00,VWS V14.01,2013-08-26 06:07:00,
2013-08-26 02:12:00,63.9,59.3,28.20,NW,315,0.0,0.0,85,0.00,,---,0.00,VWS V14.01,2013-08-26 06:12:00,
2013-08-26 02:18:00,63.7,59.1,28.20,NW,315,0.0,0.0,85,0.00,,---,0.00,VWS V14.01,2013-08-26 06:18:00,
2013-08-26 02:23:00,63.5,58.9,28.20,NW,315,0.0,0.0,85,0.00,,---,0.00,VWS V14.01,2013-08-26 06:23:00,
2013-08-26 02:28:00,63.3,59.1,28.20,NW,315,0.0,0.0,86,0.00,,---,0.00,VWS V14.01,2013-08-26 06:28:00,
2013-08-26 02:33:00,63.1,58.9,28.20,NW,315,0.0,0.0,86,0.00,,---,0.00,VWS V14.01,2013-08-26 06:33:00,
2013-08-26 02:38:00,63.1,58.9,28.20,NW,315,0.0,0.0,86,0.00,,---,0.00,VWS V14.01,2013-08-26 06:38:00,
2013-08-26 02:43:00,63.0,58.7,28.20,NW,315,0.0,0.0,86,0.00,,---,0.00,VWS V14.01,2013-08-26 06:43:00,
2013-08-26 02:48:00,63.0,58.7,28.20,NW,315,0.0,0.0,86,0.00,,---,0.00,VWS V14.01,2013-08-26 06:48:00,
2013-08-26 02:53:00,62.8,58.5,28.20,NW,315,0.0,0.0,86,0.00,,---,0.00,VWS V14.01,2013-08-26 06:53:00,
2013-08-26 02:58:00,62.8,58.5,28.20,NW,315,0.0,0.0,86,0.00,,---,0.00,VWS V14.01,2013-08-26 06:58:00,
2013-08-26 03:03:00,62.8,58.5,28.20,NW,315,0.0,0.0,86,0.00,,---,0.00,VWS V14.01,2013-08-26 07:03:00,
2013-08-26 03:08:00,62.8,58.5,28.20,NW,315,0.0,0.0,86,0.00,,---,0.00,VWS V14.01,2013-08-26 07:08:00,
2013-08-26 03:13:00,62.8,58.5,28.20,NW,315,0.0,0.0,86,0.00,,---,0.00,VWS V14.01,2013-08-26 07:13:00,
2013-08-26 03:18:00,62.8,58.5,28.20,NW,315,0.0,0.0,86,0.00,,---,0.00,VWS V14.01,2013-08-26 07:18:00,
2013-08-26 03:23:00,63.0,58.7,28.20,NW,315,0.0,0.0,86,0.00,,---,0.00,VWS V14.01,2013-08-26 07:23:00,
2013-08-26 03:28:00,63.0,58.7,28.20,NW,315,0.0,0.0,86,0.00,,---,0.00,VWS V14.01,2013-08-26 07:28:00,
2013-08-26 03:33:00,63.0,58.7,28.20,NW,315,0.0,0.0,86,0.00,,---,0.00,VWS V14.01,2013-08-26 07:33:00,
2013-08-26 03:38:00,63.1,58.9,28.20,NW,315,0.0,0.0,86,0.00,,---,0.00,VWS V14.01,2013-08-26 07:38:00,
2013-08-26 03:43:00,63.1,58.6,28.20,NW,315,0.0,0.0,85,0.00,,---,0.00,VWS V14.01,2013-08-26 07:43:00,
2013-08-26 03:48:00,63.1,58.6,28.20,NW,315,0.0,0.0,85,0.00,,---,0.00,VWS V14.01,2013-08-26 07:48:00,
2013-08-26 03:53:00,63.3,58.7,28.20,NW,315,0.0,0.0,85,0.00,,---,0.00,VWS V14.01,2013-08-26 07:53:00,
2013-08-26 03:58:00,63.3,58.7,28.20,NW,315,0.0,0.0,85,0.00,,---,0.00,VWS V14.01,2013-08-26 07:58:00,
2013-08-26 04:03:00,63.3,58.7,28.20,NW,315,0.0,0.0,85,0.00,,---,0.00,VWS V14.01,2013-08-26 08:03:00,
2013-08-26 04:09:00,63.1,58.6,28.20,NW,315,0.0,0.0,85,0.00,,---,0.00,VWS V14.01,2013-08-26 08:09:00,
2013-08-26 04:14:00,63.0,58.1,28.20,NW,315,0.0,0.0,84,0.00,,---,0.00,VWS V14.01,2013-08-26 08:14:00,
2013-08-26 04:19:00,63.0,58.1,28.20,NW,315,0.0,0.0,84,0.00,,---,0.00,VWS V14.01,2013-08-26 08:19:00,
2013-08-26 04:24:00,62.8,57.9,28.20,NW,315,0.0,0.0,84,0.00,,---,0.00,VWS V14.01,2013-08-26 08:24:00,
2013-08-26 04:29:00,62.6,57.7,28.20,NW,315,0.0,0.0,84,0.00,,---,0.00,VWS V14.01,2013-08-26 08:29:00,
2013-08-26 04:34:00,62.6,57.7,28.20,NW,315,0.0,0.0,84,0.00,,---,0.00,VWS V14.01,2013-08-26 08:34:00,
2013-08-26 04:39:00,62.6,57.7,28.20,NW,315,0.0,0.0,84,0.00,,---,0.00,VWS V14.01,2013-08-26 08:39:00,
2013-08-26 04:44:00,62.6,57.7,28.20,NW,315,0.0,0.0,84,0.00,,---,0.00,VWS V14.01,2013-08-26 08:44:00,
2013-08-26 04:49:00,62.4,57.9,28.20,NW,315,0.0,0.0,85,0.00,,---,0.00,VWS V14.01,2013-08-26 08:49:00,
2013-08-26 04:54:00,62.2,57.3,28.20,NW,315,0.0,0.0,84,0.00,,---,0.00,VWS V14.01,2013-08-26 08:54:00,
2013-08-26 04:59:00,62.2,57.3,28.20,NW,315,0.0,0.0,84,0.00,,---,0.00,VWS V14.01,2013-08-26 08:59:00,
2013-08-26 05:04:00,62.2,57.0,28.20,NW,315,0.0,0.0,83,0.00,,---,0.00,VWS V14.01,2013-08-26 09:04:00,
2013-08-26 05:09:00,62.1,56.8,28.20,NW,315,0.0,0.0,83,0.00,,---,0.00,VWS V14.01,2013-08-26 09:09:00,
2013-08-26 05:14:00,62.1,56.8,28.20,NW,315,0.0,0.0,83,0.00,,---,0.00,VWS V14.01,2013-08-26 09:14:00,
2013-08-26 05:19:00,61.9,56.7,28.20,NW,315,0.0,0.0,83,0.00,,---,0.00,VWS V14.01,2013-08-26 09:19:00,
2013-08-26 05:24:00,61.9,56.7,28.20,NW,315,0.0,0.0,83,0.00,,---,0.00,VWS V14.01,2013-08-26 09:24:00,
2013-08-26 05:29:00,61.9,56.7,28.20,NW,315,0.0,0.0,83,0.00,,---,0.00,VWS V14.01,2013-08-26 09:29:00,
2013-08-26 05:34:00,61.9,56.7,28.20,NW,315,0.0,0.0,83,0.00,,---,0.00,VWS V14.01,2013-08-26 09:34:00,
2013-08-26 05:39:00,61.9,56.7,28.20,NW,315,0.0,0.0,83,0.00,,---,0.00,VWS V14.01,2013-08-26 09:39:00,
2013-08-26 05:44:00,61.9,56.7,28.20,NW,315,0.0,0.0,83,0.00,,---,0.00,VWS V14.01,2013-08-26 09:44:00,
2013-08-26 05:49:00,61.9,56.7,28.20,NW,315,0.0,0.0,83,0.00,,---,0.00,VWS V14.01,2013-08-26 09:49:00,
2013-08-26 05:54:00,61.9,56.7,28.20,NW,315,0.0,0.0,83,0.00,,---,0.00,VWS V14.01,2013-08-26 09:54:00,
2013-08-26 06:00:00,61.9,56.3,28.20,NW,315,0.0,0.0,82,0.00,,---,0.00,VWS V14.01,2013-08-26 10:00:00,
2013-08-26 06:05:00,61.9,56.3,28.20,NW,315,0.0,0.0,82,0.00,,---,0.00,VWS V14.01,2013-08-26 10:05:00,
2013-08-26 06:10:00,61.9,56.3,28.20,NW,315,0.0,0.0,82,0.00,,---,0.00,VWS V14.01,2013-08-26 10:10:00,
2013-08-26 06:15:00,61.9,56.3,28.20,NW,315,0.0,0.0,82,0.00,,---,0.00,VWS V14.01,2013-08-26 10:15:00,
2013-08-26 06:20:00,61.9,56.3,28.20,NW,315,0.0,0.0,82,0.00,,---,0.00,VWS V14.01,2013-08-26 10:20:00,
2013-08-26 06:25:00,61.9,56.3,28.20,NW,315,0.0,0.0,82,0.00,,---,0.00,VWS V14.01,2013-08-26 10:25:00,
2013-08-26 06:30:00,61.9,56.3,28.20,NW,315,0.0,0.0,82,0.00,,---,0.00,VWS V14.01,2013-08-26 10:30:00,
2013-08-26 06:35:00,61.9,56.3,28.20,NW,315,0.0,0.0,82,0.00,,---,0.00,VWS V14.01,2013-08-26 10:35:00,
2013-08-26 06:40:00,61.7,55.8,28.20,NW,315,0.0,0.0,81,0.00,,---,0.00,VWS V14.01,2013-08-26 10:40:00,
2013-08-26 06:45:00,61.7,56.2,28.20,NW,315,0.0,0.0,82,0.00,,---,0.00,VWS V14.01,2013-08-26 10:45:00,
2013-08-26 06:50:00,61.7,56.2,28.20,NW,315,0.0,0.0,82,0.00,,---,0.00,VWS V14.01,2013-08-26 10:50:00,
2013-08-26 06:55:00,61.7,56.2,28.20,NW,315,0.0,0.0,82,0.00,,---,0.00,VWS V14.01,2013-08-26 10:55:00,
2013-08-26 07:00:00,61.7,56.2,28.20,NW,315,0.0,0.0,82,0.00,,---,0.00,VWS V14.01,2013-08-26 11:00:00,
2013-08-26 07:05:00,61.7,56.2,28.20,NW,315,0.0,0.0,82,0.00,,---,0.00,VWS V14.01,2013-08-26 11:05:00,
2013-08-26 07:10:00,61.5,56.0,28.20,NW,315,0.0,0.0,82,0.00,,---,0.00,VWS V14.01,2013-08-26 11:10:00,
2013-08-26 07:15:00,61.3,55.8,28.20,NW,315,0.0,0.0,82,0.00,,---,0.00,VWS V14.01,2013-08-26 11:15:00,
2013-08-26 07:20:00,61.5,56.0,28.20,NW,315,0.0,0.0,82,0.00,,---,0.00,VWS V14.01,2013-08-26 11:20:00,
2013-08-26 07:25:00,61.5,56.0,28.20,NW,315,0.0,0.0,82,0.00,,---,0.00,VWS V14.01,2013-08-26 11:25:00,
2013-08-26 07:30:00,61.7,56.2,28.20,NW,315,0.0,0.0,82,0.00,,---,0.00,VWS V14.01,2013-08-26 11:30:00,
2013-08-26 07:35:00,61.7,56.2,28.20,NW,315,0.0,0.0,82,0.00,,---,0.00,VWS V14.01,2013-08-26 11:35:00,
2013-08-26 07:40:00,61.7,56.2,28.20,NW,315,0.0,0.0,82,0.00,,---,0.00,VWS V14.01,2013-08-26 11:40:00,
2013-08-26 07:45:00,61.7,56.2,28.20,NW,315,0.0,0.0,82,0.00,,---,0.00,VWS V14.01,2013-08-26 11:45:00,
2013-08-26 07:51:00,61.9,56.3,28.20,NW,315,0.0,0.0,82,0.00,,---,0.00,VWS V14.01,2013-08-26 11:51:00,
2013-08-26 07:56:00,62.1,56.5,28.20,NW,315,0.0,0.0,82,0.00,,---,0.00,VWS V14.01,2013-08-26 11:56:00,
2013-08-26 08:01:00,62.1,56.8,28.20,NW,315,0.0,0.0,83,0.00,,---,0.00,VWS V14.01,2013-08-26 12:01:00,
2013-08-26 08:06:00,62.2,56.7,28.20,NW,315,0.0,0.0,82,0.00,,---,0.00,VWS V14.01,2013-08-26 12:06:00,
2013-08-26 08:11:00,62.4,57.2,28.20,NW,315,0.0,0.0,83,0.00,,---,0.00,VWS V14.01,2013-08-26 12:11:00,
2013-08-26 08:16:00,62.6,57.0,28.20,NW,315,0.0,0.0,82,0.00,,---,0.00,VWS V14.01,2013-08-26 12:16:00,
2013-08-26 08:21:00,62.8,57.2,28.20,NW,315,0.0,0.0,82,0.00,,---,0.00,VWS V14.01,2013-08-26 12:21:00,
2013-08-26 08:26:00,63.1,57.9,28.20,NW,315,0.0,0.0,83,0.00,,---,0.00,VWS V14.01,2013-08-26 12:26:00,
2013-08-26 08:31:00,63.5,58.2,28.20,NW,315,0.0,0.0,83,0.00,,---,0.00,VWS V14.01,2013-08-26 12:31:00,
2013-08-26 08:36:00,63.7,58.4,28.20,NW,315,0.0,0.0,83,0.00,,---,0.00,VWS V14.01,2013-08-26 12:36:00,
2013-08-26 08:41:00,64.0,58.8,28.20,NW,315,0.0,0.0,83,0.00,,---,0.00,VWS V14.01,2013-08-26 12:41:00,
2013-08-26 08:46:00,64.2,59.0,28.20,NW,315,0.0,0.0,83,0.00,,---,0.00,VWS V14.01,2013-08-26 12:46:00,
2013-08-26 08:51:00,64.4,58.5,28.20,NW,315,0.0,0.0,81,0.00,,---,0.00,VWS V14.01,2013-08-26 12:51:00,
2013-08-26 08:56:00,64.6,58.3,28.20,NW,315,0.0,0.0,80,0.00,,---,0.00,VWS V14.01,2013-08-26 12:56:00,
2013-08-26 09:01:00,64.9,58.6,28.20,NW,315,0.0,0.0,80,0.00,,---,0.00,VWS V14.01,2013-08-26 13:01:00,
2013-08-26 09:06:00,64.9,58.6,28.20,NW,315,0.0,0.0,80,0.00,,---,0.00,VWS V14.01,2013-08-26 13:06:00,
2013-08-26 09:11:00,65.3,59.0,28.20,NW,315,0.0,0.0,80,0.00,,---,0.00,VWS V14.01,2013-08-26 13:11:00,
2013-08-26 09:16:00,65.7,59.7,28.20,NW,315,0.0,0.0,81,0.00,,---,0.00,VWS V14.01,2013-08-26 13:16:00,
2013-08-26 09:21:00,66.0,59.3,28.23,NW,315,0.0,0.0,79,0.00,,---,0.00,VWS V14.01,2013-08-26 13:21:00,
2013-08-26 09:26:00,67.3,60.2,28.23,NW,315,0.0,0.0,78,0.00,,---,0.00,VWS V14.01,2013-08-26 13:26:00,
2013-08-26 09:31:00,68.5,61.0,28.23,NW,315,0.0,0.0,77,0.00,,---,0.00,VWS V14.01,2013-08-26 13:31:00,
2013-08-26 09:36:00,69.8,61.5,28.23,NW,315,0.0,0.0,75,0.00,,---,0.00,VWS V14.01,2013-08-26 13:36:00,
2013-08-26 09:42:00,70.7,61.2,28.20,SSW,202,0.0,0.0,72,0.00,,---,0.00,VWS V14.01,2013-08-26 13:42:00,
2013-08-26 09:47:00,71.1,60.8,28.20,SSW,202,0.0,0.0,70,0.00,,---,0.00,VWS V14.01,2013-08-26 13:47:00,
2013-08-26 09:52:00,71.8,61.1,28.23,SSW,202,0.0,0.0,69,0.00,,---,0.00,VWS V14.01,2013-08-26 13:52:00,
2013-08-26 09:57:00,72.5,61.8,28.23,WSW,248,0.0,0.0,69,0.00,,---,0.00,VWS V14.01,2013-08-26 13:57:00,
2013-08-26 10:02:00,73.0,61.9,28.23,SW,225,0.0,0.0,68,0.00,,---,0.00,VWS V14.01,2013-08-26 14:02:00,
2013-08-26 10:07:00,73.0,60.2,28.23,SW,225,0.0,0.0,64,0.00,,---,0.00,VWS V14.01,2013-08-26 14:07:00,
2013-08-26 10:12:00,72.5,59.2,28.23,SSW,202,0.0,0.0,63,0.00,,---,0.00,VWS V14.01,2013-08-26 14:12:00,
2013-08-26 10:17:00,73.4,59.6,28.23,SSW,202,0.0,0.0,62,0.00,,---,0.00,VWS V14.01,2013-08-26 14:17:00,
2013-08-26 10:22:00,73.9,60.6,28.23,WSW,248,0.0,0.0,63,0.00,,---,0.00,VWS V14.01,2013-08-26 14:22:00,
2013-08-26 10:27:00,74.3,59.5,28.23,WSW,248,0.0,0.0,60,0.00,,---,0.00,VWS V14.01,2013-08-26 14:27:00,
2013-08-26 10:32:00,74.7,59.9,28.23,WSW,248,0.0,0.0,60,0.00,,---,0.00,VWS V14.01,2013-08-26 14:32:00,
2013-08-26 10:37:00,74.5,59.2,28.23,SW,225,0.0,0.0,59,0.00,,---,0.00,VWS V14.01,2013-08-26 14:37:00,
2013-08-26 10:42:00,75.2,58.9,28.23,NW,315,0.0,0.0,57,0.00,,---,0.00,VWS V14.01,2013-08-26 14:42:00,
2013-08-26 10:47:00,75.4,59.6,28.23,WNW,292,0.0,0.0,58,0.00,,---,0.00,VWS V14.01,2013-08-26 14:47:00,
2013-08-26 10:52:00,75.2,59.9,28.23,WNW,292,0.0,0.0,59,0.00,,---,0.00,VWS V14.01,2013-08-26 14:52:00,
2013-08-26 10:57:00,75.2,59.4,28.23,ENE,68,0.0,0.0,58,0.00,,---,0.00,VWS V14.01,2013-08-26 14:57:00,
2013-08-26 11:02:00,75.0,59.7,28.23,NNW,338,0.0,0.0,59,0.00,,---,0.00,VWS V14.01,2013-08-26 15:02:00,
2013-08-26 11:07:00,75.4,60.5,28.23,NNW,338,0.0,0.0,60,0.00,,---,0.00,VWS V14.01,2013-08-26 15:07:00,
2013-08-26 11:12:00,75.9,60.6,28.23,SSW,202,0.0,0.0,59,0.00,,---,0.00,VWS V14.01,2013-08-26 15:12:00,
2013-08-26 11:17:00,75.9,60.6,28.23,SSW,202,0.0,0.0,59,0.00,,---,0.00,VWS V14.01,2013-08-26 15:17:00,
2013-08-26 11:22:00,76.8,60.0,28.23,SSW,202,0.9,0.9,56,0.00,,---,0.00,VWS V14.01,2013-08-26 15:22:00,
2013-08-26 11:28:00,78.3,61.8,28.23,NW,315,0.0,0.0,57,0.00,,---,0.00,VWS V14.01,2013-08-26 15:28:00,
2013-08-26 11:33:00,79.0,61.5,28.23,SSW,202,0.9,0.9,55,0.00,,---,0.00,VWS V14.01,2013-08-26 15:33:00,
2013-08-26 11:38:00,79.0,60.9,28.23,East,90,0.0,1.1,54,0.00,,---,0.00,VWS V14.01,2013-08-26 15:38:00,
2013-08-26 11:43:00,79.5,59.8,28.23,South,180,0.0,0.0,51,0.00,,---,0.00,VWS V14.01,2013-08-26 15:43:00,
2013-08-26 11:48:00,80.1,60.3,28.23,NW,315,1.1,1.1,51,0.00,,---,0.00,VWS V14.01,2013-08-26 15:48:00,
2013-08-26 11:53:00,80.6,60.8,28.23,SSE,158,0.9,1.6,51,0.00,,---,0.00,VWS V14.01,2013-08-26 15:53:00,
2013-08-26 11:58:00,81.0,60.6,28.23,SSE,158,2.2,2.2,50,0.00,,---,0.00,VWS V14.01,2013-08-26 15:58:00,
2013-08-26 12:03:00,81.5,61.7,28.23,NW,315,0.0,0.0,51,0.00,,---,0.00,VWS V14.01,2013-08-26 16:03:00,
2013-08-26 12:08:00,81.0,60.6,28.23,West,270,0.0,0.0,50,0.00,,---,0.00,VWS V14.01,2013-08-26 16:08:00,
2013-08-26 12:13:00,81.0,60.6,28.23,SSW,202,0.0,0.0,50,0.00,,---,0.00,VWS V14.01,2013-08-26 16:13:00,
2013-08-26 12:18:00,79.7,59.4,28.23,SW,225,0.0,0.0,50,0.00,,---,0.00,VWS V14.01,2013-08-26 16:18:00,
2013-08-26 12:23:00,78.6,59.5,28.23,WSW,248,0.0,0.9,52,0.00,,---,0.00,VWS V14.01,2013-08-26 16:23:00,
2013-08-26 12:28:00,79.2,60.0,28.23,SW,225,0.0,0.0,52,0.00,,---,0.00,VWS V14.01,2013-08-26 16:28:00,
2013-08-26 12:33:00,78.6,59.5,28.23,SSE,158,0.0,0.9,52,0.00,,---,0.00,VWS V14.01,2013-08-26 16:33:00,
2013-08-26 12:38:00,79.2,60.0,28.20,East,90,0.0,0.0,52,0.00,,---,0.00,VWS V14.01,2013-08-26 16:38:00,
2013-08-26 12:43:00,78.1,60.1,28.20,South,180,0.0,0.0,54,0.00,,---,0.00,VWS V14.01,2013-08-26 16:43:00,
2013-08-26 12:48:00,78.6,60.1,28.20,SW,225,1.3,2.5,53,0.00,,---,0.00,VWS V14.01,2013-08-26 16:48:00,
2013-08-26 12:53:00,78.1,59.0,28.20,WSW,248,0.0,0.0,52,0.00,,---,0.00,VWS V14.01,2013-08-26 16:53:00,
2013-08-26 12:58:00,79.3,59.7,28.20,SSE,158,0.0,0.0,51,0.00,,---,0.00,VWS V14.01,2013-08-26 16:58:00,
2013-08-26 13:03:00,80.2,60.5,28.20,South,180,0.0,0.0,51,0.00,,---,0.00,VWS V14.01,2013-08-26 17:03:00,
2013-08-26 13:08:00,81.3,60.3,28.20,East,90,0.9,0.9,49,0.00,,---,0.00,VWS V14.01,2013-08-26 17:08:00,
2013-08-26 13:13:00,81.9,60.8,28.20,SSW,202,0.9,0.9,49,0.00,,---,0.00,VWS V14.01,2013-08-26 17:13:00,
2013-08-26 13:19:00,82.0,61.0,28.20,WSW,248,1.3,2.0,49,0.00,,---,0.00,VWS V14.01,2013-08-26 17:19:00,
2013-08-26 13:24:00,81.5,59.9,28.20,SSE,158,0.0,1.6,48,0.00,,---,0.00,VWS V14.01,2013-08-26 17:24:00,
2013-08-26 13:29:00,81.3,59.8,28.20,WSW,248,1.1,1.3,48,0.00,,---,0.00,VWS V14.01,2013-08-26 17:29:00,
2013-08-26 13:34:00,81.0,60.0,28.20,SSW,202,0.0,0.0,49,0.00,,---,0.00,VWS V14.01,2013-08-26 17:34:00,
2013-08-26 13:39:00,82.4,61.3,28.20,NW,315,0.0,0.0,49,0.00,,---,0.00,VWS V14.01,2013-08-26 17:39:00,
2013-08-26 13:44:00,82.6,62.1,28.20,WNW,292,0.0,0.9,50,0.00,,---,0.00,VWS V14.01,2013-08-26 17:44:00,
2013-08-26 13:49:00,83.7,62.5,28.20,NE,45,2.2,2.2,49,0.00,,---,0.00,VWS V14.01,2013-08-26 17:49:00,
2013-08-26 13:54:00,83.3,61.6,28.20,South,180,0.0,0.0,48,0.00,,---,0.00,VWS V14.01,2013-08-26 17:54:00,
2013-08-26 13:59:00,84.0,62.8,28.20,ESE,112,0.0,0.0,49,0.00,,---,0.00,VWS V14.01,2013-08-26 17:59:00,
2013-08-26 14:04:00,84.9,63.1,28.20,WSW,248,0.0,1.1,48,0.00,,---,0.00,VWS V14.01,2013-08-26 18:04:00,
2013-08-26 14:09:00,83.7,61.9,28.17,West,270,0.0,0.0,48,0.00,,---,0.00,VWS V14.01,2013-08-26 18:09:00,
2013-08-26 14:14:00,81.5,59.9,28.17,WSW,248,0.0,1.1,48,0.00,,---,0.00,VWS V14.01,2013-08-26 18:14:00,
2013-08-26 14:19:00,80.4,59.5,28.17,West,270,0.0,0.0,49,0.00,,---,0.00,VWS V14.01,2013-08-26 18:19:00,
2013-08-26 14:24:00,79.0,59.3,28.17,NW,315,0.0,0.0,51,0.00,,---,0.00,VWS V14.01,2013-08-26 18:24:00,
2013-08-26 14:29:00,78.1,60.1,28.17,NW,315,0.0,0.0,54,0.00,,---,0.00,VWS V14.01,2013-08-26 18:29:00,
2013-08-26 14:34:00,78.1,60.1,28.17,East,90,0.0,0.0,54,0.00,,---,0.00,VWS V14.01,2013-08-26 18:34:00,
2013-08-26 14:39:00,80.4,63.3,28.17,NNE,22,0.0,0.0,56,0.00,,---,0.00,VWS V14.01,2013-08-26 18:39:00,
2013-08-26 14:44:00,80.6,63.5,28.17,South,180,0.0,0.0,56,0.00,,---,0.00,VWS V14.01,2013-08-26 18:44:00,
2013-08-26 14:49:00,79.9,63.3,28.17,SSE,158,0.0,0.0,57,0.00,,---,0.00,VWS V14.01,2013-08-26 18:49:00,
2013-08-26 14:54:00,79.5,63.0,28.17,SE,135,0.0,0.0,57,0.00,,---,0.00,VWS V14.01,2013-08-26 18:54:00,
2013-08-26 14:59:00,79.0,62.0,28.17,South,180,2.2,2.2,56,0.00,,---,0.00,VWS V14.01,2013-08-26 18:59:00,
2013-08-26 15:04:00,78.3,61.8,28.17,North,0,1.1,1.3,57,0.00,,---,0.00,VWS V14.01,2013-08-26 19:04:00,
2013-08-26 15:10:00,77.4,61.9,28.17,SSE,158,0.0,0.0,59,0.00,,---,0.00,VWS V14.01,2013-08-26 19:10:00,
2013-08-26 15:15:00,77.5,62.1,28.17,South,180,0.0,0.0,59,0.00,,---,0.00,VWS V14.01,2013-08-26 19:15:00,
2013-08-26 15:20:00,77.2,61.3,28.17,WSW,248,0.0,0.0,58,0.00,,---,0.00,VWS V14.01,2013-08-26 19:20:00,
2013-08-26 15:25:00,77.0,61.6,28.17,SSW,202,0.0,0.0,59,0.00,,---,0.00,VWS V14.01,2013-08-26 19:25:00,
2013-08-26 15:30:00,77.5,61.6,28.17,SW,225,0.0,0.0,58,0.00,,---,0.00,VWS V14.01,2013-08-26 19:30:00,
2013-08-26 15:35:00,77.2,62.2,28.14,SW,225,0.0,0.0,60,0.00,,---,0.00,VWS V14.01,2013-08-26 19:35:00,
2013-08-26 15:40:00,77.2,61.8,28.14,South,180,0.0,0.0,59,0.00,,---,0.00,VWS V14.01,2013-08-26 19:40:00,
2013-08-26 15:45:00,76.6,62.2,28.14,West,270,0.0,0.0,61,0.00,,---,0.00,VWS V14.01,2013-08-26 19:45:00,
2013-08-26 15:50:00,76.6,62.2,28.14,West,270,0.0,0.0,61,0.00,,---,0.00,VWS V14.01,2013-08-26 19:50:00,
2013-08-26 15:55:00,77.5,63.0,28.14,WSW,248,3.1,3.8,61,0.00,,---,0.00,VWS V14.01,2013-08-26 19:55:00,
2013-08-26 16:00:00,77.5,61.6,28.14,East,90,0.0,0.0,58,0.00,,---,0.00,VWS V14.01,2013-08-26 20:00:00,
2013-08-26 16:05:00,77.9,60.5,28.14,ESE,112,0.9,2.0,55,0.00,,---,0.00,VWS V14.01,2013-08-26 20:05:00,
2013-08-26 16:10:00,78.4,61.5,28.14,SW,225,0.0,0.0,56,0.00,,---,0.00,VWS V14.01,2013-08-26 20:10:00,
2013-08-26 16:15:00,78.3,60.8,28.14,West,270,0.0,0.9,55,0.00,,---,0.00,VWS V14.01,2013-08-26 20:15:00,
2013-08-26 16:20:00,78.3,61.3,28.14,SE,135,0.0,0.0,56,0.00,,---,0.00,VWS V14.01,2013-08-26 20:20:00,
2013-08-26 16:25:00,79.3,60.7,28.14,WSW,248,0.0,0.0,53,0.00,,---,0.00,VWS V14.01,2013-08-26 20:25:00,
2013-08-26 16:30:00,80.1,61.9,28.14,SW,225,0.0,0.0,54,0.00,,---,0.00,VWS V14.01,2013-08-26 20:30:00,
2013-08-26 16:35:00,80.1,61.9,28.14,SSE,158,0.0,0.0,54,0.00,,---,0.00,VWS V14.01,2013-08-26 20:35:00,
2013-08-26 16:40:00,78.6,61.1,28.14,South,180,0.0,0.0,55,0.00,,---,0.00,VWS V14.01,2013-08-26 20:40:00,
2013-08-26 16:45:00,77.7,60.8,28.14,ESE,112,0.0,0.0,56,0.00,,---,0.00,VWS V14.01,2013-08-26 20:45:00,
2013-08-26 16:50:00,77.4,59.4,28.11,ESE,112,0.0,1.1,54,0.00,,---,0.00,VWS V14.01,2013-08-26 20:50:00,
2013-08-26 16:55:00,77.5,59.1,28.11,South,180,0.0,0.0,53,0.00,,---,0.00,VWS V14.01,2013-08-26 20:55:00,
2013-08-26 17:01:00,77.7,59.8,28.11,WSW,248,0.0,0.9,54,0.00,,---,0.00,VWS V14.01,2013-08-26 21:01:00,
2013-08-26 17:06:00,77.7,60.8,28.11,ESE,112,1.6,1.6,56,0.00,,---,0.00,VWS V14.01,2013-08-26 21:06:00,
2013-08-26 17:11:00,77.5,61.1,28.11,SSW,202,1.6,1.6,57,0.00,,---,0.00,VWS V14.01,2013-08-26 21:11:00,
2013-08-26 17:16:00,77.2,60.3,28.11,NW,315,2.2,2.2,56,0.00,,---,0.00,VWS V14.01,2013-08-26 21:16:00,
2013-08-26 17:21:00,76.6,60.3,28.11,East,90,0.0,0.0,57,0.00,,---,0.00,VWS V14.01,2013-08-26 21:21:00,
2013-08-26 17:26:00,76.3,60.0,28.11,East,90,0.0,0.0,57,0.00,,---,0.00,VWS V14.01,2013-08-26 21:26:00,
2013-08-26 17:31:00,76.1,60.3,28.11,East,90,0.0,0.0,58,0.00,,---,0.00,VWS V14.01,2013-08-26 21:31:00,
2013-08-26 17:36:00,76.1,61.2,28.11,NE,45,0.0,0.0,60,0.00,,---,0.00,VWS V14.01,2013-08-26 21:36:00,
2013-08-26 17:41:00,75.9,60.6,28.11,WSW,248,0.0,0.0,59,0.00,,---,0.00,VWS V14.01,2013-08-26 21:41:00,
2013-08-26 17:46:00,75.9,61.0,28.11,WSW,248,0.0,0.0,60,0.00,,---,0.00,VWS V14.01,2013-08-26 21:46:00,
2013-08-26 17:51:00,75.7,60.4,28.11,NW,315,0.0,0.0,59,0.00,,---,0.00,VWS V14.01,2013-08-26 21:51:00,
2013-08-26 17:56:00,75.6,60.2,28.11,West,270,0.0,0.0,59,0.00,,---,0.00,VWS V14.01,2013-08-26 21:56:00,
2013-08-26 18:01:00,75.4,61.0,28.11,SE,135,0.0,0.0,61,0.00,,---,0.00,VWS V14.01,2013-08-26 22:01:00,
2013-08-26 18:06:00,75.2,60.4,28.11,SE,135,0.0,0.0,60,0.00,,---,0.00,VWS V14.01,2013-08-26 22:06:00,
2013-08-26 18:11:00,75.0,60.2,28.11,West,270,0.0,0.0,60,0.00,,---,0.00,VWS V14.01,2013-08-26 22:11:00,
2013-08-26 18:16:00,75.0,61.1,28.11,NNW,338,1.6,1.6,62,0.00,,---,0.00,VWS V14.01,2013-08-26 22:16:00,
2013-08-26 18:21:00,74.8,61.0,28.11,NNW,338,0.0,0.0,62,0.00,,---,0.00,VWS V14.01,2013-08-26 22:21:00,
2013-08-26 18:26:00,74.8,61.0,28.11,WSW,248,0.0,0.0,62,0.00,,---,0.00,VWS V14.01,2013-08-26 22:26:00,
2013-08-26 18:31:00,74.7,61.7,28.11,SW,225,0.0,0.0,64,0.00,,---,0.00,VWS V14.01,2013-08-26 22:31:00,
2013-08-26 18:36:00,74.5,61.5,28.11,SE,135,0.0,0.0,64,0.00,,---,0.00,VWS V14.01,2013-08-26 22:36:00,
2013-08-26 18:41:00,74.3,60.9,28.11,SE,135,0.0,0.0,63,0.00,,---,0.00,VWS V14.01,2013-08-26 22:41:00,
2013-08-26 18:46:00,74.3,60.9,28.11,SSE,158,0.0,0.0,63,0.00,,---,0.00,VWS V14.01,2013-08-26 22:46:00,
2013-08-26 18:52:00,74.1,60.7,28.11,SSE,158,0.0,0.0,63,0.00,,---,0.00,VWS V14.01,2013-08-26 22:52:00,
2013-08-26 18:57:00,73.9,61.0,28.08,SSE,158,0.0,0.0,64,0.00,,---,0.00,VWS V14.01,2013-08-26 22:57:00,
2013-08-26 19:02:00,73.6,61.1,28.08,SSE,158,0.0,0.0,65,0.00,,---,0.00,VWS V14.01,2013-08-26 23:02:00,
2013-08-26 19:07:00,73.4,60.9,28.11,SSE,158,0.0,0.0,65,0.00,,---,0.00,VWS V14.01,2013-08-26 23:07:00,
2013-08-26 19:12:00,73.2,61.2,28.11,SSE,158,0.0,0.0,66,0.00,,---,0.00,VWS V14.01,2013-08-26 23:12:00,
2013-08-26 19:17:00,73.0,61.5,28.11,SSE,158,0.0,0.0,67,0.00,,---,0.00,VWS V14.01,2013-08-26 23:17:00,
2013-08-26 19:22:00,72.9,61.7,28.11,SSE,158,0.0,0.0,68,0.00,,---,0.00,VWS V14.01,2013-08-26 23:22:00,
2013-08-26 19:27:00,72.7,61.5,28.11,SSE,158,0.0,0.0,68,0.00,,---,0.00,VWS V14.01,2013-08-26 23:27:00,
2013-08-26 19:32:00,72.5,61.3,28.11,SSE,158,0.0,0.0,68,0.00,,---,0.00,VWS V14.01,2013-08-26 23:32:00,
2013-08-26 19:37:00,72.1,61.4,28.11,SSE,158,0.0,0.0,69,0.00,,---,0.00,VWS V14.01,2013-08-26 23:37:00,
2013-08-26 19:42:00,72.0,61.2,28.11,SSE,158,0.0,0.0,69,0.00,,---,0.00,VWS V14.01,2013-08-26 23:42:00,
2013-08-26 19:47:00,71.8,61.5,28.11,SSE,158,0.0,0.0,70,0.00,,---,0.00,VWS V14.01,2013-08-26 23:47:00,
2013-08-26 19:52:00,71.4,61.9,28.11,SSE,158,0.0,0.0,72,0.00,,---,0.00,VWS V14.01,2013-08-26 23:52:00,
2013-08-26 19:57:00,71.2,61.8,28.11,SSE,158,0.0,0.0,72,0.00,,---,0.00,VWS V14.01,2013-08-26 23:57:00,
2013-08-26 20:02:00,71.2,61.8,28.11,SSE,158,0.0,0.0,72,0.00,,---,0.00,VWS V14.01,2013-08-27 00:02:00,
2013-08-26 20:07:00,70.5,61.8,28.08,SSE,158,0.0,0.0,74,0.00,,---,0.00,VWS V14.01,2013-08-27 00:07:00,
2013-08-26 20:12:00,70.3,61.3,28.08,SSE,158,0.0,0.0,73,0.00,,---,0.00,VWS V14.01,2013-08-27 00:12:00,
2013-08-26 20:17:00,70.0,61.3,28.08,SSE,158,0.0,0.0,74,0.00,,---,0.00,VWS V14.01,2013-08-27 00:17:00,
2013-08-26 20:22:00,69.8,61.2,28.11,SSE,158,0.0,0.0,74,0.00,,---,0.00,VWS V14.01,2013-08-27 00:22:00,
2013-08-26 20:27:00,69.4,60.8,28.11,SSE,158,0.0,0.0,74,0.00,,---,0.00,VWS V14.01,2013-08-27 00:27:00,
2013-08-26 20:32:00,69.3,61.0,28.11,SSE,158,0.0,0.0,75,0.00,,---,0.00,VWS V14.01,2013-08-27 00:32:00,
2013-08-26 20:37:00,69.3,61.0,28.08,SSE,158,0.0,0.0,75,0.00,,---,0.00,VWS V14.01,2013-08-27 00:37:00,
2013-08-26 20:43:00,69.1,60.8,28.08,SSE,158,0.0,0.0,75,0.00,,---,0.00,VWS V14.01,2013-08-27 00:43:00,
2013-08-26 20:48:00,68.9,60.3,28.08,SSE,158,0.0,0.0,74,0.00,,---,0.00,VWS V14.01,2013-08-27 00:48:00,
2013-08-26 20:53:00,68.7,60.1,28.08,SSE,158,0.0,0.0,74,0.00,,---,0.00,VWS V14.01,2013-08-27 00:53:00,
2013-08-26 20:58:00,68.5,59.9,28.08,SSE,158,0.0,0.0,74,0.00,,---,0.00,VWS V14.01,2013-08-27 00:58:00,
2013-08-26 21:03:00,68.4,60.1,28.08,SSE,158,0.0,0.0,75,0.00,,---,0.00,VWS V14.01,2013-08-27 01:03:00,
2013-08-26 21:08:00,68.4,60.1,28.08,SSE,158,0.0,0.0,75,0.00,,---,0.00,VWS V14.01,2013-08-27 01:08:00,
2013-08-26 21:13:00,68.2,60.0,28.08,SSE,158,0.0,0.0,75,0.00,,---,0.00,VWS V14.01,2013-08-27 01:13:00,
2013-08-26 21:18:00,68.2,60.0,28.08,SSE,158,0.0,0.0,75,0.00,,---,0.00,VWS V14.01,2013-08-27 01:18:00,
2013-08-26 21:23:00,68.2,60.3,28.08,SSE,158,0.0,0.0,76,0.00,,---,0.00,VWS V14.01,2013-08-27 01:23:00,
2013-08-26 21:28:00,68.0,60.2,28.08,SSE,158,0.0,0.0,76,0.00,,---,0.00,VWS V14.01,2013-08-27 01:28:00,
2013-08-26 21:33:00,68.0,60.2,28.08,SSE,158,0.0,0.0,76,0.00,,---,0.00,VWS V14.01,2013-08-27 01:33:00,
2013-08-26 21:38:00,67.8,60.3,28.08,SSE,158,0.0,0.0,77,0.00,,---,0.00,VWS V14.01,2013-08-27 01:38:00,
2013-08-26 21:43:00,67.8,60.3,28.08,SSE,158,0.0,0.0,77,0.00,,---,0.00,VWS V14.01,2013-08-27 01:43:00,
2013-08-26 21:48:00,67.6,60.2,28.08,SSE,158,0.0,0.0,77,0.00,,---,0.00,VWS V14.01,2013-08-27 01:48:00,
2013-08-26 21:53:00,67.5,60.4,28.08,SSE,158,0.0,0.0,78,0.00,,---,0.00,VWS V14.01,2013-08-27 01:53:00,
2013-08-26 21:58:00,67.5,60.4,28.08,SSE,158,0.0,0.0,78,0.00,,---,0.00,VWS V14.01,2013-08-27 01:58:00,
2013-08-26 22:03:00,67.5,60.4,28.08,SSE,158,0.0,0.0,78,0.00,,---,0.00,VWS V14.01,2013-08-27 02:03:00,
2013-08-26 22:08:00,67.5,60.4,28.08,SSE,158,0.0,0.0,78,0.00,,---,0.00,VWS V14.01,2013-08-27 02:08:00,
2013-08-26 22:13:00,67.5,60.4,28.08,SSE,158,0.0,0.0,78,0.00,,---,0.00,VWS V14.01,2013-08-27 02:13:00,
2013-08-26 22:18:00,67.5,60.4,28.08,SSE,158,0.0,0.0,78,0.00,,---,0.00,VWS V14.01,2013-08-27 02:18:00,
2013-08-26 22:23:00,67.3,60.2,28.08,SSE,158,0.0,0.0,78,0.00,,---,0.00,VWS V14.01,2013-08-27 02:23:00,
2013-08-26 22:28:00,67.3,59.8,28.08,SSE,158,0.0,0.0,77,0.00,,---,0.00,VWS V14.01,2013-08-27 02:28:00,
2013-08-26 22:33:00,67.3,60.2,28.08,SSE,158,0.0,0.0,78,0.00,,---,0.00,VWS V14.01,2013-08-27 02:33:00,
2013-08-26 22:38:00,67.3,59.8,28.11,SSE,158,0.0,0.0,77,0.00,,---,0.00,VWS V14.01,2013-08-27 02:38:00,
2013-08-26 22:43:00,67.3,59.8,28.11,SSE,158,0.0,0.0,77,0.00,,---,0.00,VWS V14.01,2013-08-27 02:43:00,
2013-08-26 22:49:00,67.3,59.8,28.11,SSE,158,0.0,0.0,77,0.00,,---,0.00,VWS V14.01,2013-08-27 02:49:00,
2013-08-26 22:54:00,67.3,59.8,28.11,SSE,158,0.0,0.0,77,0.00,,---,0.00,VWS V14.01,2013-08-27 02:54:00,
2013-08-26 22:59:00,67.3,59.8,28.11,SSE,158,0.0,0.0,77,0.00,,---,0.00,VWS V14.01,2013-08-27 02:59:00,
2013-08-26 23:04:00,67.3,59.8,28.11,WSW,248,0.0,0.0,77,0.00,,---,0.00,VWS V14.01,2013-08-27 03:04:00,
2013-08-26 23:09:00,67.3,59.8,28.11,WSW,248,0.0,0.0,77,0.00,,---,0.00,VWS V14.01,2013-08-27 03:09:00,
2013-08-26 23:14:00,67.3,59.8,28.11,WSW,248,0.0,0.0,77,0.00,,---,0.00,VWS V14.01,2013-08-27 03:14:00,
2013-08-26 23:19:00,67.3,59.8,28.11,WSW,248,0.0,0.0,77,0.00,,---,0.00,VWS V14.01,2013-08-27 03:19:00,
2013-08-26 23:24:00,67.1,59.7,28.11,WSW,248,0.0,0.0,77,0.00,,---,0.00,VWS V14.01,2013-08-27 03:24:00,
2013-08-26 23:29:00,67.1,60.0,28.11,WSW,248,0.0,0.0,78,0.00,,---,0.00,VWS V14.01,2013-08-27 03:29:00,
2013-08-26 23:34:00,67.1,60.0,28.11,WSW,248,0.0,0.0,78,0.00,,---,0.00,VWS V14.01,2013-08-27 03:34:00,
2013-08-26 23:39:00,66.9,59.8,28.08,WSW,248,0.0,0.0,78,0.00,,---,0.00,VWS V14.01,2013-08-27 03:39:00,
2013-08-26 23:44:00,66.9,59.8,28.08,WSW,248,0.0,0.0,78,0.00,,---,0.00,VWS V14.01,2013-08-27 03:44:00,
2013-08-26 23:49:00,66.9,59.8,28.08,WSW,248,0.0,0.0,78,0.00,,---,0.00,VWS V14.01,2013-08-27 03:49:00,
2013-08-26 23:54:00,66.7,59.7,28.11,WSW,248,0.0,0.0,78,0.00,,---,0.00,VWS V14.01,2013-08-27 03:54:00,
2013-08-26 23:59:00,66.7,59.7,28.11,WSW,248,0.0,0.0,78,0.00,,---,0.00,VWS V14.01,2013-08-27 03:59:00,